This is the latest recevied weather packets stored in our database for station/object VE3TEJ. If no packets are shown the sender has not sent any weather packets the latest 1 day(s).
| Time | Temp. | Humidity | Pressure | Rain* | Wind** | Luminosity | Snow |
|---|---|---|---|---|---|---|---|
| 1778046249 | 8.33° C | 94% | 1006.3 hPa | 0.76 mm | 0.45 m/s, 268° | - | - |
| 1778045948 | 8.33° C | 94% | 1006.3 hPa | 0.76 mm | 0.45 m/s, 274° | - | - |
| 1778045648 | 8.33° C | 94% | 1006.5 hPa | 1.02 mm | 0.45 m/s, 269° | - | - |
| 1778045348 | 8.33° C | 94% | 1006.5 hPa | 1.02 mm | 0.45 m/s, 281° | - | - |
| 1778045047 | 8.33° C | 94% | 1006.6 hPa | 1.27 mm | 0 m/s | - | - |
| 1778044749 | 8.33° C | 94% | 1006.7 hPa | 1.02 mm | 0 m/s | - | - |
| 1778044448 | 8.33° C | 93% | 1006.8 hPa | 1.02 mm | 0.45 m/s, 273° | - | - |
| 1778044148 | 8.33° C | 93% | 1006.9 hPa | 1.27 mm | 0 m/s | - | - |
| 1778043848 | 8.33° C | 93% | 1006.8 hPa | 1.27 mm | 0.45 m/s, 284° | - | - |
| 1778043551 | 8.33° C | 93% | 1006.9 hPa | 0 mm | 0.45 m/s, 285° | - | - |
| 1778043249 | 8.33° C | 93% | 1007 hPa | 0 mm | 0.45 m/s, 285° | - | - |
| 1778042948 | 8.33° C | 93% | 1007 hPa | 0 mm | 0.45 m/s, 283° | - | - |
| 1778042648 | 8.33° C | 93% | 1006.8 hPa | 0 mm | 0.45 m/s, 278° | - | - |
| 1778042347 | 8.33° C | 93% | 1007 hPa | 0 mm | 0.45 m/s, 284° | - | - |
| 1778042049 | 8.33° C | 93% | 1007.1 hPa | 0 mm | 0.45 m/s, 276° | - | - |
| 1778041748 | 8.33° C | 93% | 1007.1 hPa | 0 mm | 0 m/s | - | - |
| 1778041448 | 8.33° C | 93% | 1007.1 hPa | 0 mm | 0 m/s | - | - |
| 1778041148 | 8.33° C | 92% | 1007.3 hPa | 0 mm | 0.45 m/s, 287° | - | - |
| 1778040847 | 8.33° C | 92% | 1007.3 hPa | 0 mm | 0.45 m/s, 274° | - | - |
| 1778040549 | 8.33° C | 92% | 1007.4 hPa | 0 mm | 0.45 m/s, 281° | - | - |
| 1778040248 | 8.33° C | 92% | 1007.7 hPa | 0 mm | 0.45 m/s, 281° | - | - |
| 1778039948 | 8.33° C | 92% | 1007.5 hPa | 0.25 mm | 0.45 m/s, 275° | - | - |
| 1778039647 | 8.89° C | 92% | 1007.2 hPa | 0.25 mm | 0.45 m/s, 279° | - | - |
| 1778039347 | 8.89° C | 92% | 1007.4 hPa | 0 mm | 0 m/s | - | - |
| 1778039049 | 8.89° C | 91% | 1007.4 hPa | 0 mm | 0 m/s | - | - |
* Rain latest hour (hover to see other rain measurements)
** Current wind speed in m/s (hover to see current wind gust speed)